Regional Weather Roundup
Issued by NWS

Home | Current Version | Previous Version | Graphics & Text | Print | Product List | Glossary Off
Versions: 1 2 3 4 5 6 7 8 9 10 11 12 13 14 15 16 17 18 19 20 21 22 23 24 25 26 27 28 29 30 31 32 33 34 35 36 37 38 39 40 41 42 43 44 45 46 47 48 49 50

000
ASUS43 KLSX 011707
RWRMO

WEATHER SUMMARY FOR MISSOURI
NATIONAL WEATHER SERVICE SPRINGFIELD MO
1200 PM CDT WED APR 01 2015

NOTE: "FAIR" INDICATES FEW OR NO CLOUDS BELOW 12,000 FEET WITH NO
       SIGNIFICANT WEATHER AND/OR OBSTRUCTIONS TO VISIBILITY.
       CURRENT SKY AND/OR WEATHER CONDITIONS ARE NOT AVAILABLE FOR
       CHILLICOTHE AND FARMINGTON.

MOZ001>031-035>038-043-044-053-054-011800-
...NORTHERN AND WESTERN MISSOURI...

CITY           SKY/WX    TMP DP  RH WIND       PRES   REMARKS
KANSAS CTY INT PTSUNNY   72  52  49 S16       29.85F
KANSAS C DTWN  PTSUNNY   73  53  49 S10G18    29.85F
LEE`S SUMMIT   PTSUNNY   71  52  50 S8G17     29.87F
ST JOSEPH      MOSUNNY   74  50  42 S20       29.83F
CHILLICOTHE      N/A     72  47  40 S14G21    29.89F
KIRKSVILLE     MOSUNNY   72  38  29 S24       29.93F

$$
MOZ066>068-077>081-088>096-101>105-011800-
...SOUTHWEST MISSOURI...

CITY           SKY/WX    TMP DP  RH WIND       PRES   REMARKS
SPRINGFIELD    PTSUNNY   66  55  67 S17G24    29.94R
JOPLIN         CLOUDY    63  59  87 SE12      29.91S

$$
MOZ032>034-039>042-045>050-055>058-069>072-011800-
...CENTRAL MISSOURI...

CITY           SKY/WX    TMP DP  RH WIND       PRES   REMARKS
COLUMBIA       MOSUNNY   72  40  31 SE20G28   29.95F
JEFFERSON CITY MOSUNNY   72  38  29 SE16      29.94F
ROLLA          MOSUNNY   72  38  29 S20G28    29.96F
SEDALIA        PTSUNNY   74  44  34 S17       29.91F
WHITEMAN AFB   PTSUNNY   73  48  40 S15G23    29.87F
WARRENSBURG    MOSUNNY   73  46  38 SE16      29.87F
OSAGE BEACH    MOSUNNY   72  37  28 SE14G20   29.94F

$$
MOZ051-052-059>065-011800-
...EAST CENTRAL MISSOURI...

CITY           SKY/WX    TMP DP  RH WIND       PRES   REMARKS
ST LOUIS INTL  PTSUNNY   72  36  26 SE18G24   30.03S
SPIRIT OF STL  MOSUNNY   72  35  25 S14G22    30.00F
ST CHARLES     MOSUNNY   71  38  29 S20G25    30.01F

$$
MOZ072>076-082>087-097>100-106>115-011800-
...SOUTH CENTRAL AND SOUTHEAST MISSOURI...

CITY           SKY/WX    TMP DP  RH WIND       PRES   REMARKS
CAPE GIRARDEAU SUNNY     70  43  37 SE9       30.06F
FARMINGTON     SUNNY     72  37  28 S15       30.07F
POPLAR BLUFF   SUNNY     68  42  38 SE15G22   30.04F
WEST PLAINS    CLOUDY    67  44  43 SE13G21   30.01F

$$



USA.gov is the U.S. government's official web portal to all federal, state and local government web resources and services.